When you browse on this site, cookies collect data to enhance your experience and personalize the content and advertising you see.
Visit our Privacy Policy to learn more. By continuing to use the site, you agree to this use of cookies and data.
  • In Hungary
  • List of Countries
  • For 7 days
  • Water Temperature
  • Weather Map
  • News
  • Weather Widgets
  • user-avatar
    Login

    Hourly Weather Zacharzow

    Today, 18 September, Wednesday

    Time Temperature Precipitation Wind Pressure Humidity
    00:00 +5°C° 0 mm 8 mps 741 mmHg 81%
    01:00 +5°C° 0 mm 8 mps 741 mmHg 81%
    02:00 +5°C° 0 mm 9 mps 741 mmHg 81%
    03:00 +5°C° 0 mm 9 mps 742 mmHg 81%
    04:00 +5°C° 0 mm 9 mps 742 mmHg 82%
    05:00 +5°C° 0.1 mm 9 mps 742 mmHg 80%
    06:00 +6°C° 0.1 mm 10 mps 743 mmHg 79%
    07:00 +6°C° 0.1 mm 10 mps 744 mmHg 77%
    08:00 +7°C° 0 mm 10 mps 744 mmHg 74%
    09:00 +8°C° 0 mm 9 mps 745 mmHg 71%
    10:00 +8°C° 0 mm 9 mps 746 mmHg 69%
    11:00 +11°C° 0 mm 9 mps 746 mmHg 63%
    12:00 +12°C° 0 mm 9 mps 746 mmHg 56%
    13:00 +13°C° 0 mm 9 mps 747 mmHg 50%
    14:00 +12°C° 0.2 mm 8 mps 747 mmHg 54%
    15:00 +12°C° 0.2 mm 8 mps 747 mmHg 57%
    16:00 +12°C° 0.2 mm 7 mps 747 mmHg 60%
    17:00 +11°C° 0.2 mm 7 mps 748 mmHg 66%
    18:00 +9°C° 0.2 mm 6 mps 748 mmHg 72%
    19:00 +8°C° 0.2 mm 5 mps 748 mmHg 77%
    20:00 +8°C° 0 mm 5 mps 749 mmHg 79%
    21:00 +7°C° 0 mm 5 mps 749 mmHg 80%
    22:00 +7°C° 0 mm 5 mps 749 mmHg 82%
    23:00 +7°C° 0 mm 5 mps 750 mmHg 84%

    Tomorrow, 19 September, Thursday

    Time Temperature Precipitation Wind Pressure Humidity
    00:00 +6°C° 0 mm 5 mps 750 mmHg 86%
    01:00 +6°C° 0 mm 4 mps 750 mmHg 88%
    02:00 +6°C° 0 mm 4 mps 750 mmHg 88%
    03:00 +5°C° 0 mm 4 mps 750 mmHg 88%
    04:00 +5°C° 0 mm 4 mps 750 mmHg 88%
    05:00 +6°C° 0 mm 4 mps 751 mmHg 84%
    06:00 +6°C° 0 mm 5 mps 751 mmHg 79%
    07:00 +7°C° 0 mm 5 mps 751 mmHg 75%
    08:00 +8°C° 0 mm 5 mps 751 mmHg 70%
    09:00 +10°C° 0 mm 5 mps 752 mmHg 65%
    10:00 +11°C° 0 mm 6 mps 752 mmHg 61%
    11:00 +13°C° 0.2 mm 6 mps 752 mmHg 58%
    12:00 +14°C° 0.2 mm 6 mps 752 mmHg 56%
    13:00 +14°C° 0.2 mm 6 mps 751 mmHg 54%
    14:00 +14°C° 0.2 mm 6 mps 751 mmHg 55%
    15:00 +14°C° 0.2 mm 6 mps 751 mmHg 56%
    16:00 +13°C° 0.2 mm 6 mps 751 mmHg 58%
    17:00 +12°C° 0.1 mm 5 mps 752 mmHg 63%
    18:00 +10°C° 0.1 mm 4 mps 752 mmHg 68%
    19:00 +9°C° 0.1 mm 3 mps 752 mmHg 74%
    20:00 +8°C° 0 mm 3 mps 752 mmHg 75%
    21:00 +8°C° 0 mm 3 mps 753 mmHg 76%
    22:00 +7°C° 0 mm 3 mps 753 mmHg 77%
    23:00 +7°C° 0 mm 3 mps 753 mmHg 79%

    Day after tomorrow, 20 September, Friday

    Time Temperature Precipitation Wind Pressure Humidity
    00:00 +7°C° 0 mm 3 mps 753 mmHg 80%
    01:00 +5°C° 0 mm 3 mps 753 mmHg 81%
    02:00 +5°C° 0 mm 3 mps 753 mmHg 82%
    03:00 +5°C° 0 mm 3 mps 753 mmHg 82%
    04:00 +4°C° 0 mm 3 mps 753 mmHg 82%
    05:00 +5°C° 0 mm 3 mps 753 mmHg 79%
    06:00 +7°C° 0 mm 3 mps 753 mmHg 77%
    07:00 +7°C° 0 mm 4 mps 753 mmHg 74%
    08:00 +8°C° 0.1 mm 4 mps 753 mmHg 68%
    09:00 +10°C° 0.1 mm 5 mps 754 mmHg 63%
    10:00 +13°C° 0.1 mm 6 mps 754 mmHg 57%
    11:00 +13°C° 0 mm 6 mps 754 mmHg 52%
    12:00 +14°C° 0 mm 6 mps 754 mmHg 46%
    13:00 +14°C° 0 mm 6 mps 754 mmHg 41%
    14:00 +14°C° 0 mm 6 mps 754 mmHg 42%
    15:00 +14°C° 0 mm 5 mps 754 mmHg 43%
    16:00 +13°C° 0 mm 5 mps 754 mmHg 45%
    17:00 +12°C° 0 mm 4 mps 754 mmHg 51%
    18:00 +10°C° 0 mm 3 mps 754 mmHg 57%
    19:00 +9°C° 0 mm 2 mps 754 mmHg 64%
    20:00 +8°C° 0 mm 2 mps 755 mmHg 64%
    21:00 +9°C° 0 mm 1 mps 755 mmHg 65%
    22:00 +8°C° 0 mm 1 mps 755 mmHg 66%
    23:00 +8°C° 0 mm 1 mps 756 mmHg 66%

    21 September, Saturday

    Time Temperature Precipitation Wind Pressure Humidity
    00:00 +6°C° 0 mm 0 mps 756 mmHg 67%
    01:00 +6°C° 0 mm 0 mps 756 mmHg 67%
    02:00 +6°C° 0 mm 0 mps 756 mmHg 68%
    03:00 +5°C° 0 mm 0 mps 756 mmHg 68%
    04:00 +5°C° 0 mm 0 mps 756 mmHg 69%
    05:00 +7°C° 0 mm 1 mps 756 mmHg 67%
    06:00 +8°C° 0 mm 1 mps 756 mmHg 64%
    07:00 +9°C° 0 mm 1 mps 756 mmHg 62%
    08:00 +11°C° 0 mm 1 mps 756 mmHg 57%
    09:00 +13°C° 0 mm 1 mps 756 mmHg 52%
    10:00 +15°C° 0 mm 1 mps 756 mmHg 47%
    11:00 +15°C° 0 mm 1 mps 756 mmHg 44%
    12:00 +16°C° 0 mm 1 mps 756 mmHg 41%
    13:00 +18°C° 0 mm 1 mps 755 mmHg 39%
    14:00 +18°C° 0 mm 1 mps 755 mmHg 40%
    15:00 +18°C° 0 mm 1 mps 755 mmHg 41%
    16:00 +18°C° 0 mm 1 mps 754 mmHg 42%
    17:00 +15°C° 0 mm 1 mps 754 mmHg 46%
    18:00 +13°C° 0 mm 1 mps 754 mmHg 51%
    19:00 +12°C° 0 mm 1 mps 754 mmHg 55%
    20:00 +11°C° 0 mm 1 mps 754 mmHg 57%
    21:00 +11°C° 0 mm 1 mps 754 mmHg 58%
    22:00 +10°C° 0 mm 1 mps 754 mmHg 60%
    23:00 +9°C° 0 mm 2 mps 754 mmHg 60%

    22 September, Sunday

    Time Temperature Precipitation Wind Pressure Humidity
    00:00 +9°C° 0 mm 2 mps 754 mmHg 61%
    01:00 +8°C° 0 mm 2 mps 754 mmHg 62%
    02:00 +8°C° 0 mm 2 mps 754 mmHg 62%
    03:00 +8°C° 0 mm 2 mps 753 mmHg 63%
    04:00 +7°C° 0 mm 2 mps 753 mmHg 63%
    05:00 +8°C° 0 mm 2 mps 753 mmHg 62%
    06:00 +9°C° 0 mm 2 mps 752 mmHg 61%
    07:00 +10°C° 0 mm 2 mps 752 mmHg 60%
    08:00 +13°C° 0 mm 2 mps 752 mmHg 55%
    09:00 +14°C° 0 mm 3 mps 752 mmHg 49%
    10:00 +18°C° 0 mm 3 mps 752 mmHg 44%
    11:00 +19°C° 0 mm 3 mps 751 mmHg 41%
    12:00 +20°C° 0 mm 2 mps 751 mmHg 38%
    13:00 +21°C° 0 mm 2 mps 750 mmHg 36%
    14:00 +21°C° 0 mm 2 mps 750 mmHg 39%
    15:00 +21°C° 0 mm 2 mps 749 mmHg 42%
    16:00 +20°C° 0 mm 2 mps 749 mmHg 45%
    17:00 +18°C° 0 mm 2 mps 749 mmHg 50%
    18:00 +16°C° 0 mm 2 mps 748 mmHg 55%
    19:00 +14°C° 0 mm 2 mps 748 mmHg 60%
    20:00 +13°C° 0 mm 2 mps 748 mmHg 62%
    21:00 +13°C° 0 mm 2 mps 748 mmHg 65%
    22:00 +12°C° 0 mm 2 mps 747 mmHg 67%
    23:00 +12°C° 0 mm 2 mps 747 mmHg 68%

    23 September, Monday

    Time Temperature Precipitation Wind Pressure Humidity
    00:00 +12°C° 0 mm 2 mps 747 mmHg 69%
    01:00 +11°C° 0 mm 1 mps 747 mmHg 70%
    02:00 +11°C° 0 mm 1 mps 746 mmHg 70%
    03:00 +11°C° 0 mm 1 mps 746 mmHg 70%
    04:00 +11°C° 0 mm 1 mps 745 mmHg 70%
    05:00 +12°C° 0 mm 2 mps 745 mmHg 68%
    06:00 +12°C° 0 mm 2 mps 745 mmHg 65%
    07:00 +13°C° 0 mm 2 mps 744 mmHg 63%
    08:00 +15°C° 0 mm 2 mps 744 mmHg 57%
    09:00 +18°C° 0 mm 2 mps 744 mmHg 51%
    10:00 +20°C° 0 mm 2 mps 744 mmHg 44%
    11:00 +21°C° 0 mm 2 mps 743 mmHg 43%
    12:00 +23°C° 0 mm 2 mps 743 mmHg 43%
    13:00 +24°C° 0 mm 2 mps 742 mmHg 42%
    14:00 +23°C° 0 mm 1 mps 742 mmHg 45%
    15:00 +22°C° 0 mm 1 mps 742 mmHg 49%
    16:00 +22°C° 0 mm 1 mps 742 mmHg 52%
    17:00 +20°C° 0 mm 1 mps 742 mmHg 54%
    18:00 +19°C° 0 mm 1 mps 742 mmHg 55%
    19:00 +18°C° 0 mm 1 mps 742 mmHg 57%
    20:00 +18°C° 0 mm 1 mps 742 mmHg 59%
    21:00 +16°C° 0 mm 2 mps 742 mmHg 61%
    22:00 +16°C° 0 mm 2 mps 742 mmHg 63%
    23:00 +15°C° 0.5 mm 2 mps 742 mmHg 71%
    Show more